Time,TemperatureF,DewpointF,PressureIn,WindDirection,WindDirectionDegrees,WindSpeedMPH,WindSpeedGustMPH,Humidity,HourlyPrecipIn,Conditions,Clouds,dailyrainin,SolarRadiationWatts/m^2,SoftwareType,DateUTC
2013-05-30 09:55:00,72.2,64.2,30.19,East,98,1.0,3.0,76,0.00,,,0.00,345,Wunderground v.1.15,2013-05-30 13:55:00,
2013-05-30 10:00:00,72.0,64.0,30.19,ESE,103,2.0,2.0,76,0.00,,,0.00,413,Wunderground v.1.15,2013-05-30 14:00:00,
2013-05-30 10:05:00,71.9,64.3,30.19,ESE,106,2.0,2.0,77,0.00,,,0.00,58,Wunderground v.1.15,2013-05-30 14:05:00,
2013-05-30 10:15:00,72.3,64.3,30.19,East,101,1.0,4.0,76,0.00,,,0.00,100,Wunderground v.1.15,2013-05-30 14:15:00,
2013-05-30 10:20:00,72.5,64.5,30.18,ESE,103,2.0,2.0,76,0.00,,,0.00,114,Wunderground v.1.15,2013-05-30 14:20:00,
2013-05-30 10:25:00,72.9,64.9,30.18,ESE,103,2.0,2.0,76,0.00,,,0.00,162,Wunderground v.1.15,2013-05-30 14:25:00,
2013-05-30 10:30:00,73.5,64.7,30.18,ESE,107,1.0,3.0,74,0.00,,,0.00,383,Wunderground v.1.15,2013-05-30 14:30:00,
2013-05-30 10:35:00,73.7,64.1,30.18,East,92,3.0,3.0,72,0.00,,,0.00,214,Wunderground v.1.15,2013-05-30 14:35:00,
2013-05-30 10:45:00,74.1,64.5,30.18,ESE,105,3.0,3.0,72,0.00,,,0.00,171,Wunderground v.1.15,2013-05-30 14:45:00,
2013-05-30 10:50:00,74.3,65.1,30.18,SE,128,3.0,5.0,73,0.00,,,0.00,155,Wunderground v.1.15,2013-05-30 14:50:00,
2013-05-30 10:55:00,74.1,64.9,30.18,ESE,116,2.0,5.0,73,0.00,,,0.00,135,Wunderground v.1.15,2013-05-30 14:55:00,
2013-05-30 11:00:00,74.1,63.7,30.18,SSE,158,3.0,3.0,70,0.00,,,0.00,125,Wunderground v.1.15,2013-05-30 15:00:00,
2013-05-30 11:10:00,73.6,64.4,30.17,South,169,2.0,2.0,73,0.00,,,0.00,144,Wunderground v.1.15,2013-05-30 15:10:00,
2013-05-30 11:15:00,74.0,64.4,30.17,SE,137,2.0,2.0,72,0.00,,,0.00,118,Wunderground v.1.15,2013-05-30 15:15:00,
2013-05-30 11:20:00,74.3,64.3,30.17,SSE,155,2.0,5.0,71,0.00,,,0.00,207,Wunderground v.1.15,2013-05-30 15:20:00,
2013-05-30 11:25:00,74.1,63.7,30.17,South,178,2.0,5.0,70,0.00,,,0.00,135,Wunderground v.1.15,2013-05-30 15:25:00,
2013-05-30 11:35:00,74.4,64.4,30.17,East,98,2.0,6.0,71,0.00,,,0.00,123,Wunderground v.1.15,2013-05-30 15:35:00,
2013-05-30 11:40:00,74.8,63.5,30.17,East,101,3.0,3.0,68,0.00,,,0.00,146,Wunderground v.1.15,2013-05-30 15:40:00,
2013-05-30 11:45:00,74.7,63.4,30.17,SSE,161,3.0,3.0,68,0.00,,,0.00,258,Wunderground v.1.15,2013-05-30 15:45:00,
2013-05-30 11:50:00,75.2,64.3,30.17,East,98,3.0,3.0,69,0.00,,,0.00,445,Wunderground v.1.15,2013-05-30 15:50:00,
2013-05-30 11:55:00,75.4,64.9,30.17,ESE,103,2.0,3.0,70,0.00,,,0.00,949,Wunderground v.1.15,2013-05-30 15:55:00,
2013-05-30 12:00:00,76.0,64.7,30.17,SSE,157,2.0,3.0,68,0.00,,,0.00,638,Wunderground v.1.15,2013-05-30 16:00:00,
2013-05-30 12:05:00,76.2,64.9,30.17,SE,124,2.0,3.0,68,0.00,,,0.00,937,Wunderground v.1.15,2013-05-30 16:05:00,
2013-05-30 12:15:00,76.3,63.7,30.17,ESE,107,3.0,5.0,65,0.00,,,0.00,990,Wunderground v.1.15,2013-05-30 16:15:00,
2013-05-30 12:20:00,76.4,63.8,30.17,East,100,3.0,5.0,65,0.00,,,0.00,986,Wunderground v.1.15,2013-05-30 16:20:00,
2013-05-30 12:25:00,76.6,63.1,30.16,ESE,105,4.0,6.0,63,0.00,,,0.00,979,Wunderground v.1.15,2013-05-30 16:25:00,
2013-05-30 12:30:00,76.5,63.0,30.16,ESE,114,3.0,3.0,63,0.00,,,0.00,967,Wunderground v.1.15,2013-05-30 16:30:00,
2013-05-30 12:35:00,77.0,64.3,30.16,East,94,3.0,3.0,65,0.00,,,0.00,974,Wunderground v.1.15,2013-05-30 16:35:00,
2013-05-30 12:40:00,77.1,63.1,30.16,East,100,3.0,3.0,62,0.00,,,0.00,923,Wunderground v.1.15,2013-05-30 16:40:00,
2013-05-30 12:50:00,77.3,63.3,30.16,SE,132,3.0,4.0,62,0.00,,,0.00,960,Wunderground v.1.15,2013-05-30 16:50:00,
2013-05-30 12:55:00,77.4,63.4,30.15,East,100,3.0,4.0,62,0.00,,,0.00,947,Wunderground v.1.15,2013-05-30 16:55:00,
2013-05-30 13:00:00,77.6,64.5,30.15,ESE,103,2.0,3.0,64,0.00,,,0.00,925,Wunderground v.1.15,2013-05-30 17:00:00,
2013-05-30 13:05:00,78.0,63.9,30.15,ESE,103,3.0,3.0,62,0.00,,,0.00,949,Wunderground v.1.15,2013-05-30 17:05:00,
2013-05-30 13:15:00,77.8,64.2,30.15,SE,134,3.0,3.0,63,0.00,,,0.00,928,Wunderground v.1.15,2013-05-30 17:15:00,
2013-05-30 13:25:00,77.7,63.6,30.15,SE,126,3.0,4.0,62,0.00,,,0.00,993,Wunderground v.1.15,2013-05-30 17:25:00,
2013-05-30 13:30:00,78.1,64.0,30.15,South,169,3.0,3.0,62,0.00,,,0.00,1011,Wunderground v.1.15,2013-05-30 17:30:00,
2013-05-30 13:35:00,78.7,64.6,30.15,SSW,201,1.0,3.0,62,0.00,,,0.00,977,Wunderground v.1.15,2013-05-30 17:35:00,
2013-05-30 13:40:00,79.2,64.1,30.14,SE,124,2.0,2.0,60,0.00,,,0.00,1021,Wunderground v.1.15,2013-05-30 17:40:00,
2013-05-30 15:20:00,78.7,64.6,30.11,South,176,3.0,3.0,62,0.00,,,0.00,721,Wunderground v.1.15,2013-05-30 19:20:00,
2013-05-30 15:30:00,79.5,64.9,30.11,SSE,166,1.0,2.0,61,0.00,,,0.00,436,Wunderground v.1.15,2013-05-30 19:30:00,
2013-05-30 15:40:00,79.3,64.7,30.11,West,263,1.0,1.0,61,0.00,,,0.00,800,Wunderground v.1.15,2013-05-30 19:40:00,
2013-05-30 15:45:00,79.6,64.0,30.11,SSE,161,1.0,1.0,59,0.00,,,0.00,735,Wunderground v.1.15,2013-05-30 19:45:00,
2013-05-30 15:50:00,79.8,64.7,30.11,SSE,164,1.0,1.0,60,0.00,,,0.00,735,Wunderground v.1.15,2013-05-30 19:50:00,
2013-05-30 15:55:00,79.6,63.5,30.11,SSE,151,2.0,2.0,58,0.00,,,0.00,735,Wunderground v.1.15,2013-05-30 19:55:00,
2013-05-30 16:00:00,79.6,65.4,30.10,SE,146,2.0,2.0,62,0.00,,,0.00,367,Wunderground v.1.15,2013-05-30 20:00:00,
2013-05-30 16:05:00,79.4,64.3,30.10,SE,137,1.0,2.0,60,0.00,,,0.00,480,Wunderground v.1.15,2013-05-30 20:05:00,
2013-05-30 16:15:00,79.4,64.3,30.10,SSE,150,1.0,1.0,60,0.00,,,0.00,181,Wunderground v.1.15,2013-05-30 20:15:00,
2013-05-30 16:20:00,79.2,64.6,30.10,SSE,164,1.0,2.0,61,0.00,,,0.00,176,Wunderground v.1.15,2013-05-30 20:20:00,
2013-05-30 16:25:00,78.9,64.3,30.10,South,169,1.0,2.0,61,0.00,,,0.00,141,Wunderground v.1.15,2013-05-30 20:25:00,
2013-05-30 16:30:00,78.5,64.4,30.10,SE,137,1.0,1.0,62,0.00,,,0.00,162,Wunderground v.1.15,2013-05-30 20:30:00,
2013-05-30 16:35:00,78.1,63.6,30.10,SE,132,2.0,4.0,61,0.00,,,0.00,167,Wunderground v.1.15,2013-05-30 20:35:00,
2013-05-30 16:40:00,77.8,63.7,30.10,SSE,150,3.0,3.0,62,0.00,,,0.00,139,Wunderground v.1.15,2013-05-30 20:40:00,
2013-05-30 16:50:00,77.6,63.5,30.10,SE,143,2.0,2.0,62,0.00,,,0.00,156,Wunderground v.1.15,2013-05-30 20:50:00,
2013-05-30 16:55:00,77.6,63.5,30.10,SE,128,2.0,3.0,62,0.00,,,0.00,120,Wunderground v.1.15,2013-05-30 20:55:00,
2013-05-30 17:00:00,77.4,63.8,30.10,SE,132,3.0,3.0,63,0.00,,,0.00,130,Wunderground v.1.15,2013-05-30 21:00:00,
2013-05-30 17:05:00,77.4,63.8,30.10,SE,146,2.0,3.0,63,0.00,,,0.00,128,Wunderground v.1.15,2013-05-30 21:05:00,
2013-05-30 17:15:00,77.6,64.0,30.09,SSE,149,1.0,2.0,63,0.00,,,0.00,123,Wunderground v.1.15,2013-05-30 21:15:00,
2013-05-30 17:20:00,77.5,63.9,30.09,SSE,149,1.0,1.0,63,0.00,,,0.00,111,Wunderground v.1.15,2013-05-30 21:20:00,
2013-05-30 17:25:00,77.2,63.6,30.09,SSE,163,1.0,1.0,63,0.00,,,0.00,118,Wunderground v.1.15,2013-05-30 21:25:00,
2013-05-30 17:30:00,76.9,63.8,30.09,SSE,163,1.0,1.0,64,0.00,,,0.00,118,Wunderground v.1.15,2013-05-30 21:30:00,
2013-05-30 17:35:00,76.8,64.1,30.09,SE,146,0.0,1.0,65,0.00,,,0.00,121,Wunderground v.1.15,2013-05-30 21:35:00,
2013-05-30 17:40:00,76.6,63.5,30.09,SSE,151,1.0,3.0,64,0.00,,,0.00,127,Wunderground v.1.15,2013-05-30 21:40:00,
2013-05-30 17:50:00,76.6,64.0,30.09,SSE,150,2.0,3.0,65,0.00,,,0.00,109,Wunderground v.1.15,2013-05-30 21:50:00,
2013-05-30 17:55:00,76.7,63.6,30.09,SE,130,2.0,3.0,64,0.00,,,0.00,86,Wunderground v.1.15,2013-05-30 21:55:00,
2013-05-30 18:00:00,76.5,63.4,30.09,SE,141,2.0,2.0,64,0.00,,,0.00,69,Wunderground v.1.15,2013-05-30 22:00:00,
2013-05-30 18:05:00,76.3,63.7,30.09,ESE,117,1.0,2.0,65,0.00,,,0.00,69,Wunderground v.1.15,2013-05-30 22:05:00,
2013-05-30 18:15:00,76.0,63.4,30.09,SE,127,1.0,1.0,65,0.00,,,0.00,83,Wunderground v.1.15,2013-05-30 22:15:00,
2013-05-30 18:20:00,75.8,63.6,30.09,SE,127,1.0,1.0,66,0.00,,,0.00,69,Wunderground v.1.15,2013-05-30 22:20:00,
2013-05-30 18:25:00,75.8,63.6,30.09,SE,127,1.0,1.0,66,0.00,,,0.00,63,Wunderground v.1.15,2013-05-30 22:25:00,
2013-05-30 18:30:00,75.7,63.5,30.09,SE,135,0.0,2.0,66,0.00,,,0.00,65,Wunderground v.1.15,2013-05-30 22:30:00,
2013-05-30 18:35:00,75.5,63.8,30.09,SE,135,1.0,2.0,67,0.00,,,0.00,69,Wunderground v.1.15,2013-05-30 22:35:00,
2013-05-30 18:40:00,75.4,63.7,30.09,SE,135,1.0,1.0,67,0.00,,,0.00,69,Wunderground v.1.15,2013-05-30 22:40:00,
2013-05-30 18:45:00,75.4,63.7,30.09,SE,135,1.0,1.0,67,0.00,,,0.00,58,Wunderground v.1.15,2013-05-30 22:45:00,
2013-05-30 18:50:00,75.3,64.0,30.08,SE,135,0.0,3.0,68,0.00,,,0.00,51,Wunderground v.1.15,2013-05-30 22:50:00,
2013-05-30 19:00:00,74.9,63.6,30.08,SE,136,1.0,1.0,68,0.00,,,0.00,53,Wunderground v.1.15,2013-05-30 23:00:00,
2013-05-30 19:05:00,74.8,63.1,30.08,SSE,155,1.0,1.0,67,0.00,,,0.00,51,Wunderground v.1.15,2013-05-30 23:05:00,
2013-05-30 19:15:00,74.6,63.3,30.08,SE,142,2.0,2.0,68,0.00,,,0.00,49,Wunderground v.1.15,2013-05-30 23:15:00,
2013-05-30 19:20:00,74.5,63.7,30.08,SE,142,1.0,1.0,69,0.00,,,0.00,46,Wunderground v.1.15,2013-05-30 23:20:00,
2013-05-30 19:25:00,74.4,63.6,30.08,South,169,1.0,1.0,69,0.00,,,0.00,42,Wunderground v.1.15,2013-05-30 23:25:00,
2013-05-30 19:35:00,74.2,63.8,30.08,South,169,0.0,1.0,70,0.00,,,0.00,35,Wunderground v.1.15,2013-05-30 23:35:00,
2013-05-30 19:40:00,74.1,63.7,30.08,SSE,150,0.0,1.0,70,0.00,,,0.00,30,Wunderground v.1.15,2013-05-30 23:40:00,
2013-05-30 19:45:00,73.9,63.5,30.09,SSE,150,1.0,1.0,70,0.00,,,0.00,26,Wunderground v.1.15,2013-05-30 23:45:00,
2013-05-30 19:50:00,73.8,63.8,30.08,SSE,150,0.0,0.0,71,0.00,,,0.00,23,Wunderground v.1.15,2013-05-30 23:50:00,
2013-05-30 19:55:00,73.7,63.7,30.09,SSE,150,0.0,1.0,71,0.00,,,0.00,21,Wunderground v.1.15,2013-05-30 23:55:00,